Location: ???? ????
(31.2831°N, 45.5190°E)
Time: 16:50:31
(UTC+00:00)

X-37B - Visible Passes

Search period start: 25 September 2021 00:00
Search period end: 05 October 2021 00:00
Orbit: 381 x 393 km, 45.0° (Epoch: 29 August)

Date Brightness Start Highest point End Pass type
(mag) Time Alt. Az. Time Alt. Az. Time Alt. Az.
30 Sep 3.4 02:09:03 10° N 02:10:15 12° NNE 02:11:27 10° NE visible
02 Oct 3.1 01:48:11 10° NNW 01:50:22 17° NNE 01:52:34 10° ENE visible
03 Oct 3.7 00:52:12 11° NNE 00:52:12 11° NNE 00:52:56 10° NE visible
03 Oct 1.2 02:25:44 10° NW 02:28:51 57° NE 02:31:57 10° ESE visible
04 Oct 2.3 01:29:09 21° N 01:30:23 28° NNE 01:33:11 10° E visible
